Weather in Akureyri

Iceland     65˚41′04″N   18˚06′54″W
temp.,
°C
wind,
m/s
gust,
m/s
humid.,
%
clouds,
%
prec.,
mm/h
press.,
hPa
HPBL,
m
29 november, sun
sun2900:00−4˚s4482100 0.1 100335
03:00−3˚se3384100 0.0 100031
06:00−4˚ese1179100 0.1 99621
09:00−3˚nnw2298100 3.3 99542
12:00−3˚w1196100 4.2 99621
15:00−3˚wnw2294100 0.2 99921
18:00−5˚w118996 0.3 100221
21:00−6˚sw22840 0.0 100521
30 november, mon
mon3000:00−6˚sw119325 0.3 100821
03:00−6˚sw238889 0.8 101125
06:00−8˚ssw228280 0.9 101421
09:00−9˚sw228060 0.0 101821
12:00−10˚ssw228130 0.0 101921
15:00−9˚s348042 0.0 101823
18:00−8˚se227871 0.0 101522
21:00−5˚sse4678100 0.1 1011112
1 december, tue
tue100:00−4˚se5896100 3.1 1004330
03:00−1˚se51390100 3.3 995338
06:00+3˚sse6988100 3.4 987118
09:00+4˚ssw8168566 0.1 984342
12:00−3˚s687938 0.1 981114
15:00+1˚ssw1222740 0.0 976985
18:00ssw1123720 0.0 973803
21:00−3˚sw58901 0.3 977161
2 december, wed
wed200:00−5˚sw468921 0.9 980141
03:00−8˚nnw789571 1.0 983287
06:00−12˚nw799386 1.6 984374
09:00−15˚wnw228534 0.1 98729
12:00−13˚w239351 1.1 989152
15:00−11˚wnw3695100 1.8 989463
18:00−11˚w3696100 4.5 989283
21:00−9˚nnw111793100 3.9 9901167
3 december, thu
thu300:00−9˚nnw141992100 8.0 9921289
03:00−10˚nnw131893100 4.3 9951202
06:00−10˚nnw131893100 8.7 9971203
09:00−10˚nnw131893100 4.7 10001063
12:00−9˚n131893100 8.6 10021046
15:00−9˚n121793100 3.2 10051007
18:00−9˚n121793100 6.2 1007964
21:00−9˚n121793100 2.8 1010948